• Join FlightAware (Why Join?)
  • Login
  • US Flag 
01:24PM EDT


 

Airport Tracker/Info


-or-


 

Live Flight TrackerFlight Track Log ✈ N391W ✈ 03-May-2013 ✈ KTEB - KOSU

Flight Track Log - Related Links

Times and Time Zones

All times are in EDT time to prevent confusion due to time zone crossing. See the N391W flight status page for this flight to view local times or setup timezone preferences in your user account.

Time Position Orientation Groundspeed Altitude Reporting Facility
EDT Latitude Longitude Course Direction KTS MPH feet Rate Location/Type
04:05PM 40.8333 -74.0833 255° West 160 184 1,300  Level New York TRACON
04:06PM 40.8167 -74.1667 255° West 250 288 1,800 1,440 Climbing New York TRACON
04:07PM 40.8167 -74.2500 270° West 255 293 4,200 2,400 Climbing New York TRACON
04:08PM 40.8333 -74.3500 282° West 279 321 6,700 2,880 Climbing New York TRACON
04:09PM 40.8333 -74.4500 270° West 281 323 10,000 3,240 Climbing New York TRACON
04:10PM 40.8167 -74.5667 259° West 334 384 13,200 3,120 Climbing New York TRACON
04:11PM 40.8175 -74.7497 270° West 365 420 17,300 2,820 Climbing New York Center
04:12PM 40.8122 -74.9028 267° West 400 460 19,800 2,820 Climbing New York Center
04:13PM 40.8067 -75.0617 267° West 415 478 22,800 3,000 Climbing New York Center
04:14PM 40.7903 -75.2167 262° West 426 490 25,800 2,580 Climbing New York Center
04:15PM 40.7664 -75.3578 257° West 438 504 28,100 2,220 Climbing New York Center
04:16PM 40.7158 -75.5242 248° West 443 510 30,300 1,920 Climbing New York Center
04:17PM 40.6597 -75.6733 244° Southwest 448 516 32,100 1,740 Climbing New York Center
04:18PM 40.6036 -75.8197 243° Southwest 455 524 33,900 1,800 Climbing New York Center
04:19PM 40.5408 -75.9736 242° Southwest 460 529 35,700 1,800 Climbing New York Center
04:20PM 40.4842 -76.1194 243° Southwest 460 529 37,500 1,740 Climbing New York Center
04:21PM 40.4294 -76.2678 244° Southwest 460 529 39,300 1,200 Climbing New York Center
04:22PM 40.3750 -76.4053 243° Southwest 455 524 40,000 300 Climbing New York Center
04:23PM 40.3203 -76.5478 243° Southwest 450 518 40,000  Level New York Center
04:24PM 40.2608 -76.6953 242° Southwest 445 512 40,000  Level New York Center
04:25PM 40.2036 -76.8369 242° Southwest 451 519 40,000  Level New York Center
04:26PM 40.1461 -76.9786 242° Southwest 451 519 40,000  Level New York Center
04:27PM 40.1203 -77.1122 256° West 436 502 40,000  Level New York Center
04:28PM 40.1203 -77.2669 270° West 419 482 40,000  Level New York Center
04:30PM 40.1181 -77.5342 269° West 410 472 40,000  Level Cleveland Center
04:31PM 40.1158 -77.6864 269° West 410 472 40,000  Level Cleveland Center
04:32PM 40.1133 -77.8383 269° West 423 487 40,000  Level Cleveland Center
04:33PM 40.1067 -77.9989 267° West 428 493 40,000  Level Cleveland Center
04:34PM 40.1017 -78.1564 268° West 434 499 40,000 -360 Level Cleveland Center
04:35PM 40.1050 -78.3139 272° West 439 505 39,300 -3,540 Descending Cleveland Center
04:36PM 40.1100 -78.4683 272° West 439 505 33,000 -840 Descending Cleveland Center
04:37PM 40.1150 -78.6203 273° West 434 499 37,700 1,920 Climbing Cleveland Center
04:38PM 40.1194 -78.7722 272° West 428 493 36,900 -780 Descending Cleveland Center
04:39PM 40.1219 -78.9269 271° West 423 487 36,200 -840 Descending Cleveland Center
04:40PM 40.1261 -79.0842 272° West 423 487 35,300 -900 Descending Cleveland Center
04:41PM 40.1303 -79.2444 272° West 434 499 34,500 -780 Descending Cleveland Center
04:42PM 40.1358 -79.3883 273° West 440 506 33,800 -780 Descending Cleveland Center
04:43PM 40.1375 -79.5483 271° West 440 506 33,000 -420 Descending Cleveland Center
04:44PM 40.1411 -79.7142 272° West 440 506 33,000 -120 Level Cleveland Center
04:45PM 40.1442 -79.8797 271° West 446 513 32,800 -360 Descending Cleveland Center
04:46PM 40.1431 -80.0617 270° West 462 532 32,300 -420 Descending Cleveland Center
04:47PM 40.1458 -80.2300 271° West 457 526 32,000 -180 Descending Cleveland Center
04:48PM 40.1525 -80.3739 274° West 457 526 32,000  Level Cleveland Center
04:49PM 40.1525 -80.5369 270° West 457 526 32,000  Level Cleveland Center
04:50PM 40.1547 -80.7025 271° West 457 526 32,000  Level Cleveland Center
04:51PM 40.1564 -80.8683 271° West 457 526 32,000 -240 Level Cleveland Center
04:52PM 40.1581 -81.0339 271° West 457 526 31,600 -900 Descending Cleveland Center
04:53PM 40.1572 -81.2161 270° West 457 526 30,200 -1,740 Descending Cleveland Center
04:54PM 40.1550 -81.5056 270° West 466 536 26,800 -2,040 Descending Indianapolis Center
04:55PM 40.1558 -81.6744 270° West 463 533 24,400 -2,700 Descending Indianapolis Center
04:56PM 40.1556 -81.8314 270° West 426 490 21,300 -3,300 Descending Indianapolis Center
04:57PM 40.1697 -82.0006 276° West 405 466 17,700 -3,240 Descending Indianapolis Center
04:58PM 40.1900 -82.1050 284° West 382 440 15,500 -2,820 Descending Indianapolis Center
04:58PM 40.1944 -82.1372 280° West 383 441 14,800 -2,940 Descending Indianapolis Center
04:59PM 40.2017 -82.1881 281° West 374 430 13,700 -2,940 Descending Indianapolis Center
05:00PM 40.2003 -82.2692 269° West 370 426 11,800 -3,000 Descending Indianapolis Center
05:00PM 40.1958 -82.3156 263° West 348 400 10,700 -1,800 Descending Indianapolis Center
05:01PM 40.1967 -82.3931 271° West 344 396 10,000 -660 Descending Indianapolis Center
05:01PM 40.1975 -82.4578 271° West 333 383 10,000  Level Indianapolis Center
05:02PM 40.1975 -82.5192 270° West 340 391 10,000 -120 Level Indianapolis Center
05:02PM 40.1978 -82.5833 270° West 344 396 9,900 -600 Descending Indianapolis Center
05:03PM 40.1975 -82.6367 270° West 328 377 9,400 -1,620 Descending Indianapolis Center
05:03PM 40.1972 -82.6869 270° West 285 328 8,300 -2,040 Descending Indianapolis Center
05:04PM 40.1967 -82.7408 269° West 291 335 7,300 -2,100 Descending Indianapolis Center
05:04PM 40.1919 -82.8008 264° West 286 329 6,200 -2,160 Descending Indianapolis Center
05:05PM 40.1844 -82.8631 261° West 289 333 5,100 -1,680 Descending Indianapolis Center
05:05PM 40.1800 -82.8842 255° West 279 321 4,700 -1,800 Descending Indianapolis Center
05:06PM 40.1633 -82.9594 254° West 281 323 3,300 -1,800 Descending Indianapolis Center
05:06PM 40.1458 -82.9892 232° Southwest 265 305 2,700 -780 Descending Indianapolis Center
05:07PM 40.1256 -83.0392 242° Southwest 266 306 2,500 -180 Descending Indianapolis Center
05:07PM 40.1228 -83.0794 265° West 215 247 2,500 -240 Level Indianapolis Center
05:08PM 40.1211 -83.1128 266° West 220 253 2,300 -540 Descending Indianapolis Center
05:09PM 40.0828 -83.1258 195° South 171 197 1,700 -720 Descending Indianapolis Center
05:09PM 40.0747 -83.1119 127° Southeast 134 154 1,400 -720 Descending Indianapolis Center
05:10PM 40.0794 -83.0747 81° East 146 168 1,000 -540 Descending Indianapolis Center
05:12PM 40.0798 -83.0732 90° East  Level Estimated